Location: Bo?a Wola
(50.4192°N, 19.7966°E)
Time: 11:59:33
(UTC+00:00)

Cosmos 2227 Rocket - Pass Details

Date: 15 June 2024
Orbit: 839 x 844 km, 71.0° (Epoch: 16 July)

Event Time Altitude Azimuth Distance (km) Brightness Sun altitude
Exits shadow 00:05:10 15° 232° (SW) 2,129 3.8 -14.0°
Maximum altitude 00:09:46 53° 306° (NW) 1,032 2.7 -13.7°
Drops below altitude 10° 00:15:20 10° 23° (NNE) 2,475 6.1 -13.4°
Sets 00:17:51 0° 28° (NNE) 3,413 7.4 -13.2°
